Pilot Mound, Manitoba

10:53 PM CST on February 22, 2018 (GMT -0600)
Pilot Mound

Weather History for CWPO - April, 2014

Change the Weather History Date:

Wednesday, April 9, 2014

  Actual Average Record
Temperature  
Mean Temperature 46 °F -  
Max Temperature 61 °F - - ()
Min Temperature 31 °F - - ()
Degree Days  
Heating Degree Days 19    
Moisture  
Dew Point 35 °F    
Average Humidity 72    
Maximum Humidity 99    
Minimum Humidity 40    
Precipitation  
Precipitation 0.13 in - - ()
Sea Level Pressure  
Sea Level Pressure 29.55 in    
Wind  
Wind Speed 9 mph ()    
Max Wind Speed 20 mph    
Max Gust Speed 32 mph    
T = Trace of Precipitation, MM = Missing Value Source: Averaged Metar Reports

Daily Weather History Graph

Daily Weather History Graph

Search for Another Location

Airport or City:

Trip Planner

Search our weather history database for the weather conditions in past years. The results will help you decide how hot, cold, wet, or windy it might be!

Date:

Astronomy

Apr. 09, 2014 Rise Set
Actual Time 6:56 AM CDT 8:19 PM CDT
Civil Twilight 6:23 AM CDT 8:52 PM CDT
Nautical Twilight 5:43 AM CDT 9:32 PM CDT
Astronomical Twilight 5:00 AM CDT 10:15 PM CDT
Moon 2:42 PM CDT (4/9) 4:13 AM CDT (4/9)
Length of Visible Light 14h 28m
Length of Day
13h 22m
Waxing Gibbous, 72% of the Moon is Illuminated
Apr 9
Waxing Gibbous
Apr 15
Full
Apr 22
Last Quarter
Apr 29
New
May 6
First Quarter

Hourly Weather History & Observations

Time (CDT) Temp. Windchill Dew Point Humidity Pressure Visibility Wind Dir Wind Speed Gust Speed Precip Events Conditions
12:00 AM 36.5 °F 28.7 °F 31.3 °F 81% 29.69 in - South 11.5 mph - N/A   Unknown
1:00 AM 36 °F - 32 °F 81% 29.67 in - South 10.4 mph - -  
1:00 AM 36.0 °F 28.5 °F 31.6 °F 84% 29.67 in - South 10.4 mph - N/A   Unknown
2:00 AM 35.2 °F 28.8 °F 31.6 °F 87% 29.64 in - SSW 8.1 mph - N/A   Unknown
3:00 AM 33.3 °F 26.4 °F 31.3 °F 92% 29.61 in - SSW 8.1 mph - N/A   Unknown
4:00 AM 33 °F - 31 °F 92% 29.58 in - SW 5.8 mph - -  
4:00 AM 33.3 °F 27.9 °F 31.5 °F 93% 29.58 in - SW 5.8 mph - N/A   Unknown
5:00 AM 34.0 °F 28.8 °F 31.6 °F 91% 29.58 in - SW 5.8 mph - N/A   Unknown
6:00 AM 35.1 °F 32.2 °F 31.8 °F 88% 29.57 in - SW 3.5 mph - N/A   Unknown
7:00 AM 33 °F - 31 °F 90% 29.56 in - SW 2.3 mph - -  
7:00 AM 33.1 °F - 32.9 °F 99% 29.56 in - SW 2.3 mph - N/A   Unknown
8:00 AM 34.5 °F 30.4 °F 31.5 °F 89% 29.56 in - SSW 4.6 mph - N/A   Unknown
9:00 AM 39.0 °F 34.8 °F 34.9 °F 85% 29.53 in - SSW 5.8 mph - N/A   Unknown
10:00 AM 45 °F - 38 °F 68% 29.50 in - South 5.8 mph - -  
10:00 AM 44.8 °F 41.6 °F 37.8 °F 76% 29.50 in - South 5.8 mph - N/A   Unknown
11:00 AM 52.5 °F - 43.2 °F 70% 29.46 in - SSW 11.5 mph - N/A   Unknown
12:00 PM 55.6 °F - 45.9 °F 70% 29.43 in - SSW 15.0 mph - N/A   Unknown
1:00 PM 58 °F - 46 °F 53% 29.43 in - WSW 17.3 mph - -  
1:00 PM 57.9 °F - 45.5 °F 63% 29.43 in - WSW 17.3 mph 23.0 mph N/A   Unknown
2:00 PM 61.0 °F - 39.2 °F 45% 29.41 in - West 10.4 mph 19.6 mph N/A   Unknown
3:00 PM 58.6 °F - 41.5 °F 53% 29.44 in - West 17.3 mph 32.2 mph N/A   Unknown
4:00 PM 49 °F - 38 °F 57% 29.49 in - WNW 19.6 mph - -  
4:00 PM 48.6 °F - 38.3 °F 68% 29.49 in - WNW 19.6 mph 27.6 mph N/A   Unknown
5:00 PM 48.7 °F - 36.3 °F 62% 29.52 in - WNW 19.6 mph 29.9 mph N/A   Unknown
6:00 PM 48.6 °F - 36.9 °F 64% 29.55 in - WNW 18.4 mph 26.5 mph N/A   Unknown
7:00 PM 47 °F - 30 °F 40% 29.57 in - WNW 19.6 mph - -  
7:00 PM 47.1 °F - 30.4 °F 52% 29.57 in - WNW 19.6 mph 26.5 mph N/A   Unknown
8:00 PM 44.1 °F 36.8 °F 30.6 °F 59% 29.60 in - WNW 16.1 mph 24.2 mph N/A   Unknown
9:00 PM 41.2 °F 36.0 °F 30.6 °F 66% 29.60 in - West 8.1 mph - N/A   Unknown
10:00 PM 41 °F - 30 °F 53% 29.62 in - West 12.7 mph - -  
10:00 PM 41.4 °F 34.3 °F 29.7 °F 63% 29.62 in - West 12.7 mph 19.6 mph N/A   Unknown
11:00 PM 40.6 °F 33.8 °F 28.4 °F 62% 29.62 in - West 11.5 mph 20.7 mph N/A   Unknown